No data was retrieved for https://query.yahooapis.com/v1/public/yql?q=select+%2A+from+weather.forecast+where+woeid%3D973505&format=xml&u=c

Due to severe server failure at the provider, not all demo sites are operational. Will take some days to rebuilt everything.

Demonstration site - Click on the  for more information

This is an optional block. Switch it on/off in your settings-file: $SITE['bannerTop'] = false; or $SITE['bannerBottom'] = false;

You can display ads, any other important text or photo’s using text / html or PHP code.

You can place one or more at the top and or bottom and it can all be different for content / size .



Visit our other weather sites:

Template documentation
and downloads

And another site



Nearby METAR Reports

   
EBAW - Antwerp
Updated: 28-09-2021 21:50
Clear  
Clear  
   Wind: SSE 13 km/h
Wind: SSE 13 km/h
Temperature: 15°C
Dew Point: 10°C
Humidity: 72%
Barometer: 1018 hPa
Visibility: More than 10 km
Cloud details: Clear ft
EBAW 281950Z 15007KT CAVOK 15/10 Q1018 NOSIG
EBLG - Liège
Updated: 28-09-2021 21:50
Clear  
Clear  
   Wind: SSE 13 km/h
Wind: SSE 13 km/h
Temperature: 13°C
Dew Point: 9°C
Humidity: 77%
Barometer: 1019 hPa
Visibility: More than 10 km
Cloud details: Clear ft
EBLG 281950Z 15007KT CAVOK 13/09 Q1019 NOSIG
EBCV - Mons/Bergen
Updated: 28-09-2021 21:55
Mostly Cloudy  
Mostly Cloudy  
   Wind: SSE 13 km/h
Wind: SSE 13 km/h
Temperature: 14°C
Dew Point: 12°C
Humidity: 88%
Barometer: 1017 hPa
Clouds: Mostly Cloudy
Visibility: More than 10 km
Cloud details: Mostly Cloudy 16000 ft
EBCV 281955Z AUTO 15007KT 9999 BKN160/// 14/12 Q1017 BLU
EHBK - Maastricht
Updated: 28-09-2021 21:55
Partly Cloudy  
Partly Cloudy  
   Wind: SSE 14.8 km/h
Wind: SSE 14.8 km/h
Temperature: 13°C
Dew Point: 9°C
Humidity: 77%
Barometer: 1019 hPa
Clouds: Partly Cloudy
Visibility: More than 10 km
Cloud details: Partly Cloudy ft
EHBK 281955Z AUTO 15008KT 9999 NSC 13/09 Q1019 NOSIG
ELLX - Luxemburg
Updated: 28-09-2021 21:50
Clear  
Clear  
   Wind: ENE 7.4 km/h
Wind: ENE 7.4 km/h
Temperature: 11°C
Dew Point: 10°C
Humidity: 94%
Barometer: 1020 hPa
Visibility: More than 10 km
Cloud details: Clear ft
ELLX 281950Z 06004KT CAVOK 11/10 Q1020 NOSIG
EBOS - Oostende
Updated: 28-09-2021 21:50
Clear  
Clear  
   Wind: SSE 16.7 km/h
Wind: SSE 16.7 km/h
Temperature: 13°C
Dew Point: 9°C
Humidity: 77%
Barometer: 1016 hPa
Visibility: More than 10 km
Cloud details: Clear ft
EBOS 281950Z 16009KT CAVOK 13/09 Q1016 NOSIG

Script developed by  Saratoga-weather.org Adapted for the template by  Weerstation Leuven

You find our weather info also at:

FRWN

Equipment we use:

Provider
Robohost

Robohost

This is an optional block. Switch it on/off in your settings-file: $SITE['bannerTop'] = false; or $SITE['bannerBottom'] = false;

You can display ads, any other important text or photo’s using text / html or PHP code.

You can place one or more at the top and or bottom and it can all be different for content / size .